Weather History for Zephyrhills, FL

Change the Weather History Date:

Thursday, August 14, 2014

  Actual Average (KPCM) Record (KPCM)
Temperature  
Mean Temperature 78 °F -  
Max Temperature 87 °F 90 °F 96 °F (1938)
Min Temperature 68 °F 71 °F 67 °F (1987)
Cooling Degree Days 12    
Growing Degree Days 28 (Base 50)    
Moisture  
Dew Point 74 °F    
Average Humidity 92    
Maximum Humidity 100    
Minimum Humidity 62    
Precipitation  
Precipitation 0.45 in - - ()
Sea Level Pressure  
Sea Level Pressure 30.02 in    
Wind  
Wind Speed 2 mph (SW)    
Max Wind Speed 20 mph    
Max Gust Speed 25 mph    
Visibility 9 miles    
Events Rain , Thunderstorm    
Averages and records for this station are not official NWS values.
T = Trace of Precipitation, MM = Missing Value Source: NWS Daily Summary

Daily Weather History Graph

Daily Weather History Graph

Search for Another Location

Airport:

Trip Planner

Search our weather history database for the weather conditions in past years. The results will help you decide how hot, cold, wet, or windy it might be!

Date:

Astronomy

Aug. 14, 2014 Rise Set
Actual Time 6:57 AM EDT 8:08 PM EDT
Civil Twilight 6:33 AM EDT 8:32 PM EDT
Nautical Twilight 6:03 AM EDT 9:02 PM EDT
Astronomical Twilight 5:33 AM EDT 9:32 PM EDT
Moon 10:59 PM EDT (8/14) 11:06 AM EDT (8/14)
Length of Visible Light 13h 59m
Length of Day
13h 10m
Waning Gibbous, 79% of the Moon is Illuminated
Aug 14
Waning Gibbous
Aug 17
Last Quarter
Aug 25
New
Sep 2
First Quarter
Sep 8
Full

Hourly Weather History & Observations

Time (EDT) Temp. Heat Index Dew Point Humidity Pressure Visibility Wind Dir Wind Speed Gust Speed Precip Events Conditions
12:15 AM 73.4 °F - 73.4 °F 100% 30.02 in 10.0 mi Calm Calm - N/A   Clear
12:55 AM 73.4 °F - 73.4 °F 100% 30.01 in 10.0 mi SSW 4.6 mph - N/A   Clear
1:15 AM 75.2 °F - 73.4 °F 94% 30.01 in 10.0 mi South 4.6 mph - N/A   Clear
1:35 AM 73.4 °F - 73.4 °F 100% 30.02 in 10.0 mi Calm Calm - N/A   Clear
1:55 AM 73.4 °F - 73.4 °F 100% 30.02 in 10.0 mi Calm Calm - N/A   Clear
2:15 AM 71.6 °F - 71.6 °F 100% 30.01 in 10.0 mi Calm Calm - N/A   Clear
2:35 AM 71.6 °F - 71.6 °F 100% 30.01 in 7.0 mi Calm Calm - N/A   Clear
2:55 AM 71.6 °F - 71.6 °F 100% 30.01 in 7.0 mi Calm Calm - N/A   Clear
3:15 AM 69.8 °F - 69.8 °F 100% 30.00 in 7.0 mi Calm Calm - N/A   Clear
3:35 AM 69.8 °F - 69.8 °F 100% 30.00 in 7.0 mi Calm Calm - N/A   Clear
3:55 AM 69.8 °F - 69.8 °F 100% 30.00 in 7.0 mi Calm Calm - N/A   Clear
4:15 AM 69.8 °F - 69.8 °F 100% 30.00 in 5.0 mi Calm Calm - N/A   Clear
4:35 AM 69.8 °F - 68.0 °F 94% 30.00 in 7.0 mi Calm Calm - N/A   Clear
4:55 AM 69.8 °F - 69.8 °F 100% 30.00 in 5.0 mi Calm Calm - N/A   Clear
5:15 AM 69.8 °F - 69.8 °F 100% 30.00 in 5.0 mi Calm Calm - N/A   Clear
5:35 AM 69.8 °F - 69.8 °F 100% 30.00 in 7.0 mi Calm Calm - N/A   Clear
5:55 AM 68.0 °F - 68.0 °F 100% 30.00 in 7.0 mi Calm Calm - N/A   Clear
6:15 AM 68.0 °F - 68.0 °F 100% 30.00 in 7.0 mi Calm Calm - N/A   Clear
6:35 AM 69.8 °F - 69.8 °F 100% 30.02 in 5.0 mi Calm Calm - N/A   Clear
6:55 AM 68.0 °F - 68.0 °F 100% 30.02 in 0.8 mi Calm Calm - N/A   Mist
7:15 AM 68.0 °F - 68.0 °F 100% 30.02 in 5.0 mi Calm Calm - N/A   Clear
7:35 AM 69.8 °F - 69.8 °F 100% 30.02 in 5.0 mi Calm Calm - N/A   Clear
7:55 AM 69.8 °F - 69.8 °F 100% 30.03 in 7.0 mi Calm Calm - N/A   Clear
8:15 AM 71.6 °F - 71.6 °F 100% 30.03 in 10.0 mi Calm Calm - N/A   Clear
8:35 AM 71.6 °F - 71.6 °F 100% 30.04 in 10.0 mi Calm Calm - N/A   Clear
8:55 AM 75.2 °F - 73.4 °F 94% 30.04 in 10.0 mi SSE 3.5 mph - N/A   Clear
9:15 AM 80.6 °F 88.1 °F 78.8 °F 94% 30.05 in 10.0 mi South 3.5 mph - N/A   Clear
9:35 AM 82.4 °F 92.4 °F 78.8 °F 89% 30.05 in 10.0 mi WSW 4.6 mph - N/A   Clear
9:55 AM 86.0 °F 99.3 °F 78.8 °F 79% 30.05 in 10.0 mi SW 5.8 mph - N/A   Clear
10:15 AM 86.0 °F 99.3 °F 78.8 °F 79% 30.05 in 10.0 mi West 4.6 mph - N/A   Scattered Clouds
10:35 AM 87.8 °F 99.7 °F 77.0 °F 70% 30.05 in 10.0 mi WSW 6.9 mph - N/A   Scattered Clouds
10:55 AM 87.8 °F 97.6 °F 75.2 °F 66% 30.05 in 10.0 mi SW 4.6 mph - N/A Thunderstorm Scattered Clouds
11:15 AM 87.8 °F 95.6 °F 73.4 °F 62% 30.05 in 10.0 mi West 5.8 mph - N/A Thunderstorm Thunderstorm
11:35 AM 86.0 °F 91.8 °F 71.6 °F 62% 30.07 in 10.0 mi West 19.6 mph 25.3 mph N/A Thunderstorm Thunderstorm
11:55 AM 75.2 °F - 71.6 °F 89% 30.07 in 2.5 mi North 8.1 mph 25.3 mph 0.29 in Rain , Thunderstorm Thunderstorms and Rain
12:15 PM 77.0 °F - 73.4 °F 89% 30.07 in 10.0 mi Calm Calm - N/A Thunderstorm Thunderstorm
12:35 PM 77.0 °F - 73.4 °F 89% 30.06 in 10.0 mi Calm Calm - N/A Thunderstorm Thunderstorm
12:55 PM 78.8 °F - 75.2 °F 89% 30.05 in 10.0 mi Calm Calm - N/A Thunderstorm Scattered Clouds
1:15 PM 78.8 °F - 75.2 °F 89% 30.05 in 10.0 mi South 3.5 mph - N/A Thunderstorm Clear
1:35 PM 78.8 °F - 77.0 °F 94% 30.04 in 10.0 mi Calm Calm - N/A   Clear
1:55 PM 80.6 °F 87.1 °F 77.0 °F 89% 30.03 in 10.0 mi Calm Calm - N/A Thunderstorm Clear
2:15 PM 82.4 °F 92.4 °F 78.8 °F 89% 30.02 in 10.0 mi SW 5.8 mph - N/A   Clear
2:35 PM 84.2 °F 94.1 °F 77.0 °F 79% 30.02 in 10.0 mi WSW 6.9 mph - N/A   Clear
2:55 PM 86.0 °F 95.1 °F 75.2 °F 70% 30.02 in 10.0 mi SW 4.6 mph - N/A   Clear
3:15 PM 86.0 °F 95.1 °F 75.2 °F 70% 30.00 in 10.0 mi West 5.8 mph - N/A   Clear
3:35 PM 87.8 °F 97.6 °F 75.2 °F 66% 30.00 in 10.0 mi WSW 4.6 mph - N/A   Clear
3:55 PM 87.8 °F 95.6 °F 73.4 °F 62% 30.00 in 10.0 mi WSW 6.9 mph - N/A   Clear
4:15 PM 86.0 °F 93.4 °F 73.4 °F 66% 29.99 in 10.0 mi WSW 5.8 mph - N/A   Clear
4:35 PM 80.6 °F 85.4 °F 73.4 °F 79% 30.00 in 1.8 mi NW 5.8 mph 24.2 mph 0.16 in Rain , Thunderstorm Light Thunderstorms and Rain
4:55 PM 78.8 °F - 75.2 °F 89% 29.99 in 10.0 mi Calm Calm - 0.16 in Thunderstorm Thunderstorm
5:15 PM 80.6 °F 87.1 °F 77.0 °F 89% 30.00 in 10.0 mi Calm Calm - N/A   Clear
5:35 PM 82.4 °F 92.4 °F 78.8 °F 89% 30.00 in 10.0 mi Calm Calm - N/A Thunderstorm Scattered Clouds
5:55 PM 80.6 °F 88.1 °F 78.8 °F 94% 30.00 in 10.0 mi Calm Calm - N/A Thunderstorm Thunderstorm
6:15 PM 80.6 °F 88.1 °F 78.8 °F 94% 30.00 in 10.0 mi SE 3.5 mph - N/A Thunderstorm Scattered Clouds
6:35 PM 80.6 °F 88.1 °F 78.8 °F 94% 29.99 in 10.0 mi Calm Calm - N/A Thunderstorm Mostly Cloudy
6:55 PM 78.8 °F - 78.8 °F 100% 29.99 in 10.0 mi Calm Calm - N/A Thunderstorm Mostly Cloudy
7:15 PM 78.8 °F - 78.8 °F 100% 30.01 in 10.0 mi SW 3.5 mph - N/A Thunderstorm Scattered Clouds
7:35 PM 78.8 °F - 77.0 °F 94% 30.02 in 10.0 mi SW 4.6 mph - N/A Thunderstorm Thunderstorm
7:55 PM 78.8 °F - 77.0 °F 94% 30.02 in 10.0 mi Calm Calm - N/A Thunderstorm Clear
8:15 PM 77.0 °F - 77.0 °F 100% 30.02 in 10.0 mi SSW 6.9 mph - N/A   Clear
8:35 PM 77.0 °F - 77.0 °F 100% 30.02 in 10.0 mi SSE 5.8 mph - N/A   Clear
8:55 PM 77.0 °F - 75.2 °F 94% 30.02 in 10.0 mi South 3.5 mph - N/A   Clear
9:15 PM 75.2 °F - 75.2 °F 100% 30.02 in 10.0 mi Calm Calm - N/A Thunderstorm Clear
9:35 PM 75.2 °F - 73.4 °F 94% 30.01 in 10.0 mi Calm Calm - N/A Thunderstorm Clear
9:55 PM 73.4 °F - 73.4 °F 100% 30.02 in 10.0 mi Calm Calm - N/A   Clear
10:15 PM 73.4 °F - 73.4 °F 100% 30.03 in 10.0 mi Calm Calm - N/A   Clear
10:35 PM 73.4 °F - 73.4 °F 100% 30.04 in 10.0 mi Calm Calm - N/A   Clear
10:55 PM 71.6 °F - 71.6 °F 100% 30.04 in 10.0 mi Calm Calm - N/A   Clear
11:15 PM 71.6 °F - 71.6 °F 100% 30.03 in 10.0 mi SSE 3.5 mph - N/A   Clear
11:35 PM 71.6 °F - 71.6 °F 100% 30.03 in 10.0 mi Calm Calm - N/A Thunderstorm Clear
11:55 PM 71.6 °F - 71.6 °F 100% 30.03 in 10.0 mi South 3.5 mph - N/A   Clear